015  
ASUS41 KBTV 230831  
RWRBTV  
VERMONT REGIONAL WEATHER ROUNDUP  
NATIONAL WEATHER SERVICE BURLINGTON VT  
400 AM EDT FRI APR 23 2021  
 
NOTE: "FAIR" INDICATES FEW OR NO CLOUDS BELOW 12,000 FEET WITH NO  
SIGNIFICANT WEATHER AND/OR S TO VISIBILITY
.  
 
* THESE REPORTS ARE NOT UNDER NWS QUALITY CONTROL AND/OR DO NOT  
REPORT WEATHER SUCH AS PRECIPITATION AND FOG.
 
 
VTZ001>019-230900-  
_____VERMONT_____  
 
 
CITY SKY/WX TMP DP RH WIND PRES REMARKS
 
BURLINGTON CLOUDY 39 22 50 W9G20 29.74R  
MORRISVILLE PTCLDY 38 19 46 W12G25 29.70R WCI 30  
ST. JOHNSBURY* N/A 35 21 56 MISG 29.65R  
LYNDONVILLE* FAIR 32 20 62 SW9G16 29.65R WCI 24  
MIDDLEBURY* CLOUDY 32 24 73 CALM 29.77R  
RUTLAND* CLOUDY 35 21 56 W14G22 29.77R WCI 26  
SPRINGFIELD MOCLDY 36 14 40 W14G20 29.76R WCI 27  
HIGHGATE* FAIR 37 20 51 W9G18 29.72R WCI 30  
NEWPORT* MOCLDY 35 17 49 W18G25 29.65R WCI 24  
BENNINGTON CLOUDY 33 21 61 VRB6 29.83R WCI 28  
ISLAND POND* N/A 32 N/A N/A W8 N/A WCI 25  
GALLUP MILLS* N/A 30 N/A N/A MISG N/A  
LAKE EDEN* N/A 34 N/A N/A NW7 N/A WCI 28  
MT. MANSFIELD* N/A 23 N/A N/A W48G60 N/A WCI 2  
 
_____LAKE CHAMPLAIN_____  
 
 
CITY SKY/WX TMP DP RH WIND PRES REMARKS
 
 

 
 
NYZ007-026>031-035-052-083-087-230900-  
_____NORTHERN NEW YORK_____  
 
 
CITY SKY/WX TMP DP RH WIND PRES REMARKS
 
PLATTSBURGH CLOUDY 38 19 46 W7 29.74R  
MASSENA MOCLDY 36 21 54 SW13 29.81R WCI 27  
OGDENSBURG* CLOUDY 36 25 64 W9 29.82S WCI 29  
POTSDAM* CLOUDY 34 25 69 SW13 29.82S WCI 25  
WATERTOWN PTCLDY 37 26 64 W14 29.90S WCI 28  
FT DRUM MOCLDY 34 24 66 W8 29.86S WCI 27  
ALBANY CLEAR 33 22 63 W21G29 29.88R WCI 21  
 

 
NHZ002-005-011-230900-  
_____NEW HAMPSHIRE_____  
 
 
CITY SKY/WX TMP DP RH WIND PRES REMARKS
 
LEBANON CLOUDY 36 20 52 VRB5 29.72R  
KEENE CLEAR 33 22 63 SW3 29.79R  
MT WASHINGTON BLWGSNOW 9 9 100 NW108G114 N/A VSB 0 WCI -24  
PLYMOUTH CLOUDY 37 22 56 NW7G17 29.68S WCI 31  
WHITEFIELD PTCLDY 33 20 58 W9 29.63R WCI 25  
 

 
 
_____REGIONAL QUEBEC LOCATIONS_____  
 
 
CITY SKY/WX TMP DP RH WIND PRES REMARKS
 
MONTREAL PTCLDY 36 23 60 W17 29.70R WCI 25  
QUEBEC CITY MOCLDY 34 19 55 W10G21 29.46S WCI 26  
SHERBROOKE MOCLDY 34 19 55 W17G25 29.56R WCI 23  
 
_____REGIONAL ONTARIO LOCATIONS_____  
 
 
CITY SKY/WX TMP DP RH WIND PRES REMARKS
 
OTTAWA MOCLDY 34 23 64 W9 29.79S WCI 26  
 
______KEY______  
VSB - VISIBILITY IN MILES  
WCI - WIND CHILL INDEX  
HX - HEAT INDEX  

 
NNNN  
 
 
CLICK HERE TO GO TO PREVIOUS BULLETINS.

The Nexlab VT Page
The Nexlab NY Page Main Text Page